Flag for Germany Weather past 2 weeks in Völklingen, Saarland, Germany

Now
72 °F

Partly sunny.


Feels Like: 76 °F
Forecast: 60 / 79 °F
Wind: 8 mph from Northeast

Location: Saarbruecken / Ensheim

Current Time: Jul 23, 2014 at 11:00:04 PM

Latest Report: Jul 23, 2014 at 10:20 PM


Visibility: N/A

Pressure: 29.98 "Hg

Humidity: 57%

Dew point: 55 °F

Location of VölklingenLocation

Historic Weather in Völklingen — Graph

°F

Völklingen temperature yesterday

Maximum temperature yesterday: 79 °F (at 3:20 PM)
Minimum temperature yesterday: 63 °F (at 2:50 AM)
Average temperature yesterday: 70 °F

Past Weeks' High & Low Weather Summary

 TemperatureHumidityPressure
High90 °F (Jul 18, 5:20 PM)100% (Jul 9, 7:20 PM)30.21 "Hg (Jul 9, 7:20 PM)
Low52 °F (Jul 9, 8:50 AM)27% (Jul 18, 6:20 PM)29.71 "Hg (Jul 10, 3:20 AM)
Average68 °F72%29.97 "Hg
* Reported Jul 8 9:20 PM — Jul 23 9:50 PM, Völklingen, Weather by CustomWeather, © 2014

Note: Actual official high and low records may vary slightly from our data, if they occured in-between our weather recording intervals... More about our weather records

Advertising

Völklingen weather history for previous 24 hours

 ConditionsComfort  
Time TempWeatherWind HumidityBarometerVisibility
9:50 PM
Jul 23
73 °FPartly sunny.7 mph53%29.95 "HgN/A
9:20 PM73 °FPartly sunny.6 mph50%29.95 "HgN/A
8:50 PM75 °FPartly sunny.7 mph50%29.95 "HgN/A
8:20 PM77 °FSunny.7 mph47%29.95 "Hg10 mi
7:50 PM79 °FSunny.8 mph45%29.95 "Hg10 mi
7:20 PM79 °FPartly sunny.8 mph42%29.95 "HgN/A
6:50 PM81 °FPartly sunny.8 mph39%29.95 "HgN/A
6:20 PM81 °FScattered clouds.10 mph37%29.95 "HgN/A
5:50 PM79 °FPassing clouds.12 mph42%29.95 "HgN/A
5:20 PM81 °FPassing clouds.9 mph42%29.95 "HgN/A
4:50 PM81 °FPassing clouds.9 mph42%29.98 "HgN/A
4:20 PM81 °FPassing clouds.10 mph39%29.98 "HgN/A
3:50 PM81 °FPassing clouds.13 mph42%29.98 "HgN/A
3:20 PM81 °FPassing clouds.12 mph45%29.98 "HgN/A
1:20 PM79 °FPartly sunny.12 mph51%30.01 "HgN/A
12:50 PM77 °FBroken clouds.15 mph47%30.01 "HgN/A
12:20 PM81 °FScattered clouds.13 mph45%30.01 "HgN/A
11:20 AM77 °FPassing clouds.10 mph57%30.01 "HgN/A
10:50 AM75 °FPassing clouds.10 mph61%30.01 "HgN/A
10:20 AM75 °FPassing clouds.12 mph61%30.01 "HgN/A
9:50 AM73 °FPassing clouds.13 mph65%30.01 "HgN/A
7:50 AM68 °FSunny.9 mph73%30.04 "Hg10 mi
7:20 AM66 °FSunny.10 mph78%30.04 "Hg10 mi
6:50 AM66 °FClear.9 mph78%30.04 "Hg10 mi
6:20 AM66 °FClear.8 mph78%30.04 "Hg10 mi
5:50 AM66 °FClear.8 mph78%30.04 "Hg10 mi
5:20 AM66 °FClear.8 mph78%30.04 "Hg10 mi
4:50 AM66 °FClear.8 mph78%30.04 "Hg10 mi
4:20 AM68 °FClear.9 mph73%30.04 "Hg10 mi
3:50 AM68 °FClear.8 mph73%30.04 "Hg10 mi
3:20 AM68 °FClear.8 mph73%30.04 "Hg10 mi
2:50 AM68 °FClear.8 mph73%30.04 "Hg10 mi
2:20 AM70 °FClear.7 mph69%30.04 "Hg10 mi
1:50 AM70 °FPassing clouds.8 mph69%30.04 "HgN/A
Weather by CustomWeather, © 2014

See weather overviewHow to use our weather pages